This is the latest recevied weather packets stored in our database for station/object N9BID. If no packets are shown the sender has not sent any weather packets the latest 10 day(s).
| Time | Temp. | Humidity | Pressure | Rain* | Wind** | Luminosity | Snow |
|---|---|---|---|---|---|---|---|
| 1777646450 | 3.89° C | 64% | 1009.7 hPa | 0 mm | - | 180 W/m² | - |
| 1777646147 | 3.89° C | 64% | 1009.9 hPa | 0 mm | - | 475 W/m² | - |
| 1777645844 | 3.33° C | 64% | 1009.8 hPa | 0 mm | - | 121 W/m² | - |
| 1777645541 | 3.33° C | 63% | 1009.9 hPa | 0 mm | - | 103 W/m² | - |
| 1777645237 | 3.89° C | 64% | 1009.8 hPa | 0 mm | - | 167 W/m² | - |
| 1777644933 | 3.89° C | 65% | 1009.7 hPa | 0 mm | - | 434 W/m² | - |
| 1777644631 | 3.89° C | 63% | 1009.7 hPa | 0 mm | - | 271 W/m² | - |
| 1777644327 | 3.33° C | 64% | 1010 hPa | 0 mm | - | 203 W/m² | - |
| 1777644023 | 3.33° C | 64% | 1010 hPa | 0 mm | - | 224 W/m² | - |
| 1777643720 | 3.33° C | 66% | 1009.9 hPa | 0 mm | - | 217 W/m² | - |
| 1777643418 | 3.89° C | 66% | 1010 hPa | 0 mm | - | 269 W/m² | - |
| 1777643114 | 3.89° C | 65% | 1009.6 hPa | 0 mm | - | 295 W/m² | - |
| 1777642811 | 3.33° C | 67% | 1009.9 hPa | 0 mm | - | 262 W/m² | - |
| 1777642508 | 3.33° C | 67% | 1009.8 hPa | 0 mm | - | 244 W/m² | - |
| 1777642203 | 2.78° C | 67% | 1009.9 hPa | 0 mm | - | 231 W/m² | - |
| 1777641902 | 2.78° C | 67% | 1009.9 hPa | 0 mm | - | 244 W/m² | - |
| 1777641602 | 2.78° C | 67% | 1009.9 hPa | 0 mm | - | 257 W/m² | - |
| 1777641301 | 2.78° C | 67% | 1009.8 hPa | 0 mm | - | 233 W/m² | - |
| 1777640998 | 2.78° C | 67% | 1009.8 hPa | 0 mm | - | 205 W/m² | - |
| 1777640695 | 2.78° C | 68% | 1010 hPa | 0 mm | - | 205 W/m² | - |
| 1777640391 | 2.78° C | 68% | 1009.9 hPa | 0 mm | - | 184 W/m² | - |
| 1777640088 | 2.22° C | 69% | 1010.1 hPa | 0 mm | - | 140 W/m² | - |
| 1777639785 | 2.22° C | 70% | 1010 hPa | 0 mm | - | 141 W/m² | - |
| 1777639483 | 2.22° C | 71% | 1009.8 hPa | 0 mm | - | 117 W/m² | - |
| 1777639179 | 1.67° C | 72% | 1009.8 hPa | 0 mm | - | 77 W/m² | - |
* Rain latest hour (hover to see other rain measurements)
** Current wind speed in m/s (hover to see current wind gust speed)